Location: Fours
(44.3167°N, 6.7000°E)
Time: 01:28:55
(UTC+00:00)

X-37B - Visible Passes

Search period start: 01 December 2021 00:00
Search period end: 11 December 2021 00:00
Orbit: 330 x 341 km, 45.0° (Epoch: 20 November)

Date Brightness Start Highest point End Pass type
(mag) Time Alt. Az. Time Alt. Az. Time Alt. Az.
05 Dec 3.4 18:09:40 10° SSW 18:10:00 12° SSW 18:10:00 12° SSW visible
06 Dec 3.0 16:56:53 10° SSE 16:57:19 10° SE 16:57:45 10° SE visible
06 Dec 3.8 18:29:32 10° SW 18:29:43 11° SW 18:29:43 11° SW visible
07 Dec 1.9 17:15:07 10° SSW 17:17:27 23° SSE 17:18:08 21° SE visible
08 Dec 0.8 17:34:58 10° SW 17:37:44 47° SSE 17:37:44 47° SSE visible
09 Dec 1.5 17:55:15 10° WSW 17:57:18 42° WSW 17:57:18 42° WSW visible
10 Dec 1.0 16:40:23 10° SW 16:43:10 46° SSE 16:45:37 12° E visible
10 Dec 3.0 18:15:44 10° W 18:16:51 21° W 18:16:51 21° W visible
